[[{"header":{"parameterUnit":"m.s-1","parameterCategory":1,"la1":30.2991,"la2":30.254,"lo1":-89.0895,"lo2":-89.0444,"dy":0.0017,"dx":0.0017,"nx":28,"ny":28,"refTime":"2024-05-20T21:00:00:Z","depth":0,"parameterNumber":2,"parameterNumberName":"U-component_of_WINDS"},"data":[0,0,0,0,0,0,0,0,0,0,0,0,0,0,0,0,0,0,0,0,0,0,0,0,0,0,0,0,0,0,0,0,0,0,0,0,0,0,0,0,0,0,0,0,0,0,0,0,0,0,0,0,0,0,0,0,0,0,-2.8794,-2.8793,0,-2.8791,-2.8791,-2.8791,-2.8737,-2.8736,-2.8735,-2.8733,-2.8732,-2.8734,-2.8735,0,0,0,0,0,0,0,0,0,0,0,0,0,-2.8753,-2.8754,-2.8794,-2.8793,-2.8793,-2.8791,-2.8791,-2.8791,-2.8738,-2.8736,-2.8734,-2.8733,-2.8732,-2.8733,-2.8735,0,0,0,0,0,0,0,0,0,0,0,0,0,-2.8763,-2.8755,-2.8794,-2.8766,-2.8764,-2.8791,-2.8791,-2.8791,-2.8738,-2.8736,-2.8734,-2.8732,-2.8731,-2.8733,-2.8735,-2.8789,0,0,-2.8741,-2.8742,0,0,0,0,0,0,0,0,-2.8762,-2.8764,-2.877,-2.8768,-2.8766,-2.8762,-2.8777,-2.879,-2.8738,-2.8748,-2.8733,-2.8731,-2.8744,-2.8745,-2.8749,-2.8788,-2.8788,-2.8741,-2.8742,-2.8743,-2.8744,0,0,0,0,0,0,0,-2.8762,-2.8764,-2.8793,-2.8771,-2.8768,-2.8755,-2.8754,-2.8779,-2.8758,-2.8747,-2.8743,-2.8743,-2.8742,-2.8747,-2.8749,-2.8788,-2.8741,-2.8743,-2.8744,-2.8745,-2.8873,-2.8875,0,0,0,0,0,0,-2.8765,-2.8764,-2.8793,-2.8793,-2.8759,-2.8757,-2.8756,-2.8766,-2.8757,-2.8754,-2.8745,-2.8741,-2.8745,-2.8746,-2.8748,-2.8811,-2.8743,-2.8745,-2.8746,-2.8871,-2.8874,-2.8876,0,0,0,0,0,0,-2.8764,-2.8768,-2.8793,-2.8777,-2.8779,-2.876,-2.8771,-2.8767,-2.8771,-2.8756,-2.8752,-2.8754,-2.8743,-2.8746,-2.8779,-2.881,-2.8746,-2.8747,-2.8868,-2.8872,-2.8875,-2.8937,0,0,0,0,0,0,-2.8763,-2.8768,-2.8787,-2.8778,-2.878,-2.8823,-2.8773,-2.8768,-2.8775,-2.8769,-2.8763,-2.876,-2.8742,-2.8777,-2.8781,-2.8812,-2.8749,-2.8865,-2.887,-2.8874,-2.8932,-2.8942,-2.8951,0,0,0,0,0,-2.8762,-2.8805,-2.8789,-2.8792,-2.8804,-2.8825,-2.8826,-2.8804,-2.8777,-2.8797,-2.8788,-2.876,-2.8806,-2.878,-2.8785,-2.8817,-2.8863,-2.8868,-2.8873,-2.8928,-2.894,-2.895,0,0,0,0,0,0,-2.8818,-2.8803,-2.8785,-2.8826,-2.8827,-2.8816,-2.884,-2.8818,-2.8827,-2.8821,-2.8794,-2.8793,-2.8831,-2.8827,-2.8799,-2.8869,-2.883,-2.8836,-2.887,-2.8881,-2.8891,-2.8891,-2.875,0,0,0,0,0,-2.8836,-2.8853,-2.8839,-2.8877,-2.8879,-2.886,-2.8868,-2.8851,-2.8851,-2.8851,-2.8844,-2.8845,-2.886,-2.887,-2.8883,-2.8931,-2.893,-2.8956,-2.8965,-2.8973,-2.8979,-2.9005,-2.9017,-2.8893,-2.8893,-2.8893,0,0,-2.8872,-2.8866,-2.8878,-2.8888,-2.8887,-2.8907,-2.886,-2.8882,-2.8897,-2.8854,-2.8886,-2.8881,-2.8881,-2.8922,-2.894,-2.892,-2.9012,-2.8979,-2.8985,-2.8987,-2.9011,-2.9023,-2.9034,-2.8896,-2.8896,-2.8895,0,0,-2.8947,-2.8944,-2.8976,-2.8976,-2.8975,-2.8962,-2.897,-2.8962,-2.8957,-2.8988,-2.8957,-2.8974,-2.8999,-2.9001,-2.9006,-2.9083,-2.9059,-2.9088,-2.9137,-2.9163,-2.9173,-2.9181,-2.921,-2.9221,-2.9094,-2.9094,-2.9094,0,-2.8992,-2.902,-2.8995,-2.902,-2.9026,-2.8988,-2.9021,-2.9022,-2.9025,-2.903,-2.9008,-2.904,-2.9038,-2.908,-2.9099,-2.9103,-2.9112,-2.9089,-2.9173,-2.9182,-2.9189,-2.9217,-2.9227,-2.9098,-2.9097,-2.9097,-2.9097,0,-2.9076,-2.9096,-2.9121,-2.9126,-2.9134,-2.9163,-2.9143,-2.9155,-2.9138,-2.9128,-2.916,-2.9156,-2.9168,-2.9176,-2.9159,-2.9216,-2.9204,-2.9178,-2.9139,-2.9205,-2.923,-2.924,-2.9103,-2.9102,-2.9101,-2.91,0,0,-2.9187,-2.9177,-2.9187,-2.919,-2.9186,-2.9201,-2.9229,-2.924,-2.9251,-2.9255,-2.9278,-2.9301,-2.9277,-2.9282,-2.9265,-2.9288,-2.9352,-2.9259,-2.9259,-2.9278,-2.9415,-2.9436,-2.9448,-2.9335,-2.9337,-2.9339,-2.9416,0,-2.926,-2.9306,-2.9285,-2.9334,-2.9352,-2.9317,-2.9341,-2.9342,-2.9334,-2.9349,-2.934,-2.9357,-2.9324,-2.9327,-2.9348,-2.9339,-2.9379,-2.9333,-2.9357,-2.9359,-2.9359,-2.9461,-2.9482,-2.9555,-2.9425,-2.9427,-2.9428,0,-2.9352,-2.936,-2.9411,-2.9405,-2.9412,-2.9434,-2.9443,-2.9458,-2.9459,-2.9451,-2.9458,-2.9436,-2.9463,-2.9424,-2.9462,-2.9431,-2.944,-2.9437,-2.944,-2.9441,-2.9398,-2.9466,-2.9577,-2.9589,-2.9443,-2.9442,-2.9441,0,-2.9429,-2.9453,-2.9486,-2.9489,-2.9483,-2.9499,-2.9498,-2.9496,-2.9505,-2.9513,-2.9519,-2.953,-2.9537,-2.9547,-2.9529,-2.9502,-2.957,-2.9529,-2.9565,-2.9566,-2.9582,-2.9581,-2.9697,-2.9586,-2.9586,-2.9586,-2.9586,0,-2.9514,-2.9547,-2.9521,-2.9542,-2.9577,-2.9553,-2.959,-2.9584,-2.9584,-2.9603,-2.9574,-2.9593,-2.9568,-2.9585,-2.9571,-2.9606,-2.9609,-2.9604,-2.96,-2.9607,-2.9608,-2.9613,-2.9607,-2.9589,-2.9588,-2.9588,-2.9587,0,-2.9606,-2.959,-2.9625,-2.9616,-2.9615,-2.9642,-2.9635,-2.9654,-2.9644,-2.967,-2.9674,-2.9658,-2.9677,-2.966,-2.9678,-2.9669,-2.9715,-2.9704,-2.9715,-2.9712,-2.975,-2.9747,-2.9873,-2.9889,-2.9768,-2.9769,-2.977,0,-2.9662,-2.9686,-2.9681,-2.9692,-2.9692,-2.971,-2.9719,-2.9696,-2.9707,-2.971,-2.973,-2.9746,-2.9757,-2.9789,-2.978,-2.9794,-2.9783,-2.9826,-2.9785,-2.9791,-2.9785,-2.9784,-2.9786,-2.9835,-2.9836,-2.9837,-2.9838,0,-2.9763,-2.9754,-2.9767,-2.9779,-2.979,-2.9798,-2.9803,-2.9814,-2.9791,-2.9805,-2.9823,-2.9833,-2.9851,-2.9868,-2.9879,-2.9878,-2.9855,-2.9851,-2.9861,-2.9868,-2.9874,-2.9873,-2.9739,-2.9849,-2.9848,-2.9847,-2.9846,-2.9846,-2.9839,-2.9859,-2.9859,-2.9875,-2.9877,-2.9883,-2.9901,-2.9894,-2.9909,-2.9922,-2.9908,-2.9931,-2.9933,-2.9945,-2.9947,-2.9965,-2.9947,-2.9961,-2.9964,-2.9968,-2.9974,-2.9871,-2.9967,-2.9967,-2.9967,-2.9966,-2.9966,0,-2.9939,-2.9937,-2.9952,-2.9961,-2.9975,-2.9951,-2.9957,-2.997,-2.999,-2.9993,-3.0006,-3.0028,-3.0044,-3.0037,-3.0051,-3.0068,-3.0058,-3.0072,-3.0071,-3.0072,-2.9989,-2.998,-3.008,-3.008,-3.008,-3.008,-3.008,-3.008,-2.9992,-3.0026,-3.0017,-3.0052,-3.005,-3.0072,-3.0078,-3.0083,-3.0086,-3.0112,-3.0126,-3.012,-3.012,-3.0134,-3.0149,-3.0146,-3.0153,-3.0172,-3.0166,-3.0089,-3.0077,-3.0067,-3.0058,-3.0174,-3.0174,-3.0247,-3.0248,-3.0248]},{"header":{"parameterUnit":"m.s-1","parameterCategory":1,"la1":30.2991,"la2":30.254,"lo1":-89.0895,"lo2":-89.0444,"dy":0.0017,"dx":0.0017,"nx":28,"ny":28,"refTime":"2024-05-20T21:00:00:Z","depth":0,"parameterNumber":3,"parameterNumberName":"V-component_of_WINDS"},"data":[0,0,0,0,0,0,0,0,0,0,0,0,0,0,0,0,0,0,0,0,0,0,0,0,0,0,0,0,0,0,0,0,0,0,0,0,0,0,0,0,0,0,0,0,0,0,0,0,0,0,0,0,0,0,0,0,0,0,-0.3886,-0.3886,0,-0.388,-0.388,-0.388,-0.3828,-0.3827,-0.3825,-0.3824,-0.3819,-0.382,-0.3821,0,0,0,0,0,0,0,0,0,0,0,0,0,-0.3853,-0.3854,-0.3886,-0.3886,-0.3886,-0.388,-0.388,-0.388,-0.3828,-0.3827,-0.3825,-0.3823,-0.3819,-0.382,-0.3821,0,0,0,0,0,0,0,0,0,0,0,0,0,-0.3859,-0.3854,-0.3886,-0.386,-0.3857,-0.388,-0.388,-0.388,-0.3828,-0.3826,-0.3825,-0.3823,-0.3818,-0.382,-0.3821,-0.387,0,0,-0.3826,-0.3827,0,0,0,0,0,0,0,0,-0.3859,-0.3861,-0.3864,-0.3861,-0.3859,-0.3853,-0.3867,-0.3877,-0.3829,-0.3839,-0.3824,-0.3822,-0.3832,-0.3832,-0.3835,-0.387,-0.387,-0.3826,-0.3827,-0.3828,-0.3828,0,0,0,0,0,0,0,-0.3859,-0.3861,-0.3884,-0.3864,-0.3861,-0.3848,-0.3847,-0.3868,-0.3847,-0.3838,-0.3834,-0.3834,-0.383,-0.3834,-0.3835,-0.387,-0.3826,-0.3828,-0.3829,-0.3829,-0.3944,-0.3946,0,0,0,0,0,0,-0.3862,-0.386,-0.3884,-0.3884,-0.3854,-0.385,-0.3849,-0.3857,-0.3846,-0.3843,-0.3836,-0.3832,-0.3832,-0.3833,-0.3835,-0.3892,-0.3828,-0.383,-0.383,-0.3942,-0.3945,-0.3947,0,0,0,0,0,0,-0.3861,-0.3864,-0.3885,-0.3871,-0.3873,-0.3853,-0.3862,-0.3858,-0.3861,-0.3845,-0.3841,-0.3844,-0.3831,-0.3832,-0.3862,-0.3891,-0.383,-0.3832,-0.394,-0.3943,-0.3946,-0.4007,0,0,0,0,0,0,-0.3861,-0.3865,-0.3883,-0.3872,-0.3874,-0.3912,-0.3864,-0.3859,-0.3864,-0.3859,-0.3851,-0.3848,-0.3829,-0.386,-0.3863,-0.3892,-0.3833,-0.3937,-0.3941,-0.3945,-0.4002,-0.4012,-0.402,0,0,0,0,0,-0.386,-0.3901,-0.3884,-0.3888,-0.3896,-0.3914,-0.3915,-0.3893,-0.3867,-0.3885,-0.3874,-0.3848,-0.3887,-0.3863,-0.3867,-0.3897,-0.3935,-0.394,-0.3945,-0.3998,-0.401,-0.402,0,0,0,0,0,0,-0.3917,-0.3899,-0.3881,-0.3919,-0.3918,-0.3905,-0.3928,-0.3905,-0.3912,-0.3907,-0.3879,-0.3877,-0.3912,-0.3906,-0.3881,-0.3943,-0.3906,-0.3912,-0.3946,-0.3957,-0.3965,-0.3967,-0.3834,0,0,0,0,0,-0.3934,-0.3949,-0.3933,-0.3968,-0.3969,-0.3949,-0.3955,-0.3938,-0.3936,-0.3936,-0.3927,-0.3926,-0.3938,-0.3947,-0.3957,-0.4,-0.3998,-0.4022,-0.4031,-0.4039,-0.4045,-0.4068,-0.4079,-0.3963,-0.3963,-0.3962,0,0,-0.3969,-0.3961,-0.3973,-0.398,-0.3977,-0.3994,-0.3949,-0.3969,-0.3981,-0.3939,-0.3966,-0.396,-0.3957,-0.3994,-0.401,-0.3991,-0.4076,-0.4045,-0.4051,-0.4052,-0.4074,-0.4085,-0.4094,-0.3966,-0.3965,-0.3965,0,0,-0.4043,-0.4038,-0.4068,-0.4066,-0.4062,-0.4048,-0.4055,-0.4044,-0.4038,-0.4065,-0.4034,-0.4048,-0.4069,-0.4069,-0.4071,-0.4143,-0.412,-0.4147,-0.4194,-0.4217,-0.4226,-0.4234,-0.4261,-0.4271,-0.4153,-0.4153,-0.4153,0,-0.4088,-0.4112,-0.4086,-0.4108,-0.4112,-0.4073,-0.4103,-0.4102,-0.4102,-0.4106,-0.4084,-0.411,-0.4105,-0.4142,-0.4159,-0.4162,-0.417,-0.4149,-0.4227,-0.4235,-0.4242,-0.4267,-0.4277,-0.4156,-0.4156,-0.4156,-0.4155,0,-0.4168,-0.4185,-0.4209,-0.421,-0.4216,-0.4242,-0.422,-0.4229,-0.4211,-0.4199,-0.4227,-0.422,-0.4228,-0.4235,-0.4217,-0.4269,-0.4257,-0.4232,-0.4194,-0.4257,-0.428,-0.4289,-0.4161,-0.416,-0.4159,-0.4158,0,0,-0.428,-0.4264,-0.4274,-0.4274,-0.4266,-0.4279,-0.4302,-0.4309,-0.4319,-0.4319,-0.4339,-0.4357,-0.4333,-0.4336,-0.4318,-0.4338,-0.4396,-0.4309,-0.4309,-0.4327,-0.4454,-0.4475,-0.4486,-0.438,-0.4381,-0.4383,-0.4455,0,-0.4352,-0.4392,-0.4368,-0.4412,-0.4427,-0.439,-0.4411,-0.4408,-0.4397,-0.4409,-0.4397,-0.4411,-0.4377,-0.4379,-0.4397,-0.4386,-0.4422,-0.438,-0.4399,-0.44,-0.4403,-0.4498,-0.452,-0.4589,-0.4463,-0.4465,-0.4466,0,-0.4442,-0.4446,-0.4492,-0.448,-0.4486,-0.4505,-0.451,-0.4521,-0.4517,-0.4508,-0.4511,-0.4487,-0.4509,-0.4471,-0.4502,-0.4474,-0.448,-0.4475,-0.4478,-0.448,-0.4438,-0.4505,-0.461,-0.4621,-0.448,-0.4479,-0.4478,0,-0.4521,-0.4538,-0.4567,-0.4567,-0.4555,-0.4569,-0.4564,-0.4558,-0.4564,-0.4568,-0.4572,-0.4578,-0.4582,-0.4588,-0.4567,-0.454,-0.4601,-0.4561,-0.4595,-0.4596,-0.4611,-0.4611,-0.472,-0.4612,-0.4612,-0.4612,-0.4611,0,-0.4605,-0.4635,-0.4602,-0.462,-0.4652,-0.4624,-0.4656,-0.4647,-0.4642,-0.4658,-0.4625,-0.4641,-0.4611,-0.4624,-0.4607,-0.4636,-0.4638,-0.4632,-0.4627,-0.4636,-0.4637,-0.4641,-0.4636,-0.4614,-0.4614,-0.4613,-0.4613,0,-0.47,-0.4679,-0.4709,-0.4693,-0.469,-0.4714,-0.4702,-0.4718,-0.4704,-0.4724,-0.4728,-0.4706,-0.472,-0.4698,-0.4709,-0.4698,-0.4738,-0.4726,-0.474,-0.4737,-0.4773,-0.4771,-0.489,-0.4905,-0.4786,-0.4787,-0.4788,0,-0.4756,-0.4778,-0.4765,-0.4773,-0.477,-0.4783,-0.4789,-0.4761,-0.4768,-0.4765,-0.4782,-0.4792,-0.4799,-0.4822,-0.4808,-0.4816,-0.4804,-0.4845,-0.4805,-0.4813,-0.4807,-0.4806,-0.4809,-0.4855,-0.4856,-0.4857,-0.4858,0,-0.4859,-0.4847,-0.4856,-0.4861,-0.4868,-0.4871,-0.4872,-0.488,-0.4851,-0.486,-0.4873,-0.4879,-0.4889,-0.49,-0.4904,-0.49,-0.4875,-0.487,-0.4879,-0.4889,-0.4897,-0.4895,-0.4764,-0.4868,-0.4867,-0.4867,-0.4866,-0.4866,-0.4937,-0.4954,-0.4947,-0.4958,-0.4955,-0.4957,-0.4971,-0.4959,-0.4969,-0.4975,-0.4958,-0.4975,-0.497,-0.4973,-0.4971,-0.4984,-0.4966,-0.4978,-0.4981,-0.4985,-0.4992,-0.4893,-0.4984,-0.4984,-0.4984,-0.4983,-0.4983,0,-0.5038,-0.5032,-0.5042,-0.5043,-0.5052,-0.5026,-0.5025,-0.5034,-0.5049,-0.5046,-0.5053,-0.5068,-0.5078,-0.5064,-0.5072,-0.5085,-0.5074,-0.5089,-0.5088,-0.5088,-0.5007,-0.4999,-0.5098,-0.5098,-0.5098,-0.5098,-0.5097,-0.5097,-0.5093,-0.5121,-0.5108,-0.5135,-0.5128,-0.5144,-0.5146,-0.5147,-0.5144,-0.5162,-0.517,-0.516,-0.5153,-0.516,-0.5168,-0.5164,-0.5169,-0.5188,-0.518,-0.5105,-0.5093,-0.5083,-0.5076,-0.5189,-0.5189,-0.526,-0.526,-0.5261]}]]